DB0TGO-14 Weather Reports


Display with metric or nautical units.
time (UTC)temp
F
wind
direction
speed
MPH
gust
MPH
rain 1hr
in
rain 24hr
in
rain mn
in
humidity
%
barometer
mb
20260504012315 64 248 1.0 3.0 0.00 0.00 0.00 55 1011.8
20260504012118 64 270 0.0 2.0 0.00 0.00 0.00 55 1011.7
20260504011934 64 270 0.0 2.0 0.00 0.00 0.00 55 1011.7
20260504011745 64 270 0.0 2.0 0.00 0.00 0.00 55 1011.6
20260504011544 64 270 0.0 2.0 0.00 0.00 0.00 55 1011.6
20260504011400 64 270 0.0 2.0 0.00 0.00 0.00 56 1011.5
20260504011251 64 270 0.0 2.0 0.00 0.00 0.00 55 1011.5
20260504011218 64 270 0.0 2.0 0.00 0.00 0.00 55 1011.5
20260504011020 64 292 0.0 2.0 0.00 0.00 0.00 56 1011.5
20260504010843 64 292 0.0 2.0 0.00 0.00 0.00 55 1011.5
20260504010700 64 292 1.0 2.0 0.00 0.00 0.00 54 1011.5
20260504010514 64 292 1.0 3.0 0.00 0.00 0.00 55 1011.5
20260504010325 64 292 1.0 3.0 0.00 0.00 0.00 55 1011.5
20260504010135 64 292 1.0 3.0 0.00 0.00 0.00 55 1011.5
20260504005948 64 292 1.0 2.0 0.00 0.00 0.00 55 1011.5
20260504005748 65 292 1.0 1.0 0.00 0.00 0.00 55 1011.4
20260504005600 65 292 1.0 2.0 0.00 0.00 0.00 54 1011.5
20260504005517 65 292 1.0 2.0 0.00 0.00 0.00 54 1011.5
20260504005218 65 292 1.0 2.0 0.00 0.00 0.00 54 1011.5
20260504005031 65 292 1.0 2.0 0.00 0.00 0.00 53 1011.5
20260504004849 65 292 1.0 2.0 0.00 0.00 0.00 53 1011.5
20260504004710 65 270 1.0 2.0 0.00 0.00 0.00 52 1011.6
20260504004518 65 270 1.0 2.0 0.00 0.00 0.00 51 1011.5
20260504004339 66 270 1.0 3.0 0.00 0.00 0.00 51 1011.5
20260504004145 66 270 1.0 3.0 0.00 0.00 0.00 50 1011.4
20260504003947 66 270 1.0 3.0 0.00 0.00 0.00 50 1011.4
20260504003748 66 270 0.0 1.0 0.00 0.00 0.00 49 1011.4
20260504003654 66 270 0.0 2.0 0.00 0.00 0.00 49 1011.5
20260504003555 66 270 0.0 2.0 0.00 0.00 0.00 49 1011.4
20260504003419 66 270 0.0 2.0 0.00 0.00 0.00 49 1011.4
20260504003240 66 270 0.0 2.0 0.00 0.00 0.00 49 1011.4
20260504003050 66 0 0.0 1.0 0.00 0.00 0.00 50 1011.4
20260504002910 66 0 0.0 1.0 0.00 0.00 0.00 50 1011.3
20260504002712 66 0 0.0 1.0 0.00 0.00 0.00 50 1011.4
20260504002514 66 270 0.0 1.0 0.00 0.00 0.00 50 1011.3
20260504002318 66 270 0.0 0.0 0.00 0.00 0.00 49 1011.3
20260504002125 67 270 0.0 2.0 0.00 0.00 0.00 49 1011.2
20260504001945 67 270 0.0 2.0 0.00 0.00 0.00 49 1011.2
20260504001825 67 270 0.0 2.0 0.00 0.00 0.00 48 1011.2
20260504001805 67 270 0.0 2.0 0.00 0.00 0.00 48 1011.2
20260504001605 67 270 0.0 2.0 0.00 0.00 0.00 48 1011.2
20260504001414 67 270 1.0 2.0 0.00 0.00 0.00 48 1011.2
20260504001225 67 270 2.0 2.0 0.00 0.00 0.00 48 1011.3
20260504001028 67 270 2.0 3.0 0.00 0.00 0.00 48 1011.3
20260504000847 67 270 3.0 5.0 0.00 0.00 0.00 48 1011.3
20260504000650 67 270 3.0 5.0 0.00 0.00 0.00 47 1011.5
20260504000505 67 292 3.0 5.0 0.00 0.00 0.00 46 1011.5
20260504000328 68 248 3.0 5.0 0.00 0.00 0.00 47 1011.4
20260504000127 68 292 3.0 5.0 0.00 0.00 0.00 47 1011.4
20260504000115 68 292 3.0 5.0 0.00 0.00 0.00 47 1011.5
20260503235926 68 315 3.0 5.0 0.00 0.00 0.00 47 1011.6
20260503235745 68 292 3.0 5.0 0.00 0.00 0.00 46 1011.5
20260503235605 68 270 3.0 5.0 0.00 0.00 0.00 46 1011.6
20260503235413 68 270 4.0 8.0 0.00 0.00 0.00 46 1011.6
20260503235220 68 270 4.0 8.0 0.00 0.00 0.00 46 1011.5
20260503235020 68 270 4.0 8.0 0.00 0.00 0.00 46 1011.5
20260503234820 68 292 5.0 6.0 0.00 0.00 0.00 45 1011.4
20260503234620 68 248 5.0 7.0 0.00 0.00 0.00 45 1011.5
20260503234434 68 22 5.0 7.0 0.00 0.00 0.00 45 1011.5
20260503234358 68 270 5.0 7.0 0.00 0.00 0.00 45 1011.5
20260503234249 68 292 4.0 8.0 0.00 0.00 0.00 45 1011.5
20260503234105 68 292 4.0 9.0 0.00 0.00 0.00 44 1011.5
20260503233925 68 292 4.0 9.0 0.00 0.00 0.00 44 1011.5
20260503233725 68 315 4.0 9.0 0.00 0.00 0.00 44 1011.4
20260503233540 68 292 4.0 6.0 0.00 0.00 0.00 45 1011.5
20260503233400 68 225 4.0 8.0 0.00 0.00 0.00 44 1011.5
20260503233208 68 248 5.0 8.0 0.00 0.00 0.00 44 1011.5
20260503233015 68 248 5.0 8.0 0.00 0.00 0.00 44 1011.6
20260503232815 68 315 5.0 7.0 0.00 0.00 0.00 44 1011.6
20260503232618 68 270 5.0 8.0 0.00 0.00 0.00 45 1011.7
20260503232547 68 270 5.0 8.0 0.00 0.00 0.00 44 1011.6
20260503232440 68 315 5.0 8.0 0.00 0.00 0.00 45 1011.7
20260503232240 68 292 5.0 8.0 0.00 0.00 0.00 45 1011.8
20260503232052 68 292 5.0 7.0 0.00 0.00 0.00 44 1011.7
20260503231908 68 292 4.0 6.0 0.00 0.00 0.00 45 1011.7
20260503231730 68 292 3.0 8.0 0.00 0.00 0.00 46 1011.7
20260503231555 67 248 3.0 8.0 0.00 0.00 0.00 46 1011.6
20260503231400 67 270 2.0 8.0 0.00 0.00 0.00 48 1011.7
20260503231225 67 292 1.0 3.0 0.00 0.00 0.00 51 1011.7
20260503231036 68 292 1.0 2.0 0.00 0.00 0.00 50 1011.7
20260503230831 68 225 1.0 2.0 0.00 0.00 0.00 50 1011.7
20260503230650 68 225 1.0 2.0 0.00 0.00 0.00 49 1011.7
20260503230500 68 225 1.0 2.0 0.00 0.00 0.00 49 1011.7
20260503230300 68 225 2.0 2.0 0.00 0.00 0.00 48 1011.7
20260503230100 68 225 2.0 4.0 0.00 0.00 0.00 48 1011.7
20260503225910 68 225 2.0 4.0 0.00 0.00 0.00 48 1011.7
20260503225720 68 225 2.0 4.0 0.00 0.00 0.00 48 1011.7
20260503225529 68 270 2.0 4.0 0.00 0.00 0.00 48 1011.7
20260503225348 68 270 2.0 4.0 0.00 0.00 0.00 48 1011.8
20260503225256 68 270 2.0 4.0 0.00 0.00 0.00 48 1011.7
20260503225148 68 292 2.0 4.0 0.00 0.00 0.00 47 1011.7
20260503225002 68 202 2.0 4.0 0.00 0.00 0.00 48 1011.8
20260503224822 68 225 2.0 3.0 0.00 0.00 0.00 48 1011.7
20260503224637 68 248 2.0 3.0 0.00 0.00 0.00 49 1011.7
20260503224450 68 248 2.0 3.0 0.00 0.00 0.00 50 1011.7
20260503224255 69 248 2.0 3.0 0.00 0.00 0.00 51 1011.7
20260503224115 69 202 3.0 5.0 0.00 0.00 0.00 51 1011.7
20260503223925 69 202 3.0 5.0 0.00 0.00 0.00 51 1011.8
20260503223740 69 202 3.0 5.0 0.00 0.00 0.00 48 1011.7
20260503223615 69 225 3.0 5.0 0.00 0.00 0.00 48 1011.7
20260503223549 69 225 3.0 5.0 0.00 0.00 0.00 48 1011.6
20260503223405 69 225 3.0 5.0 0.00 0.00 0.00 47 1011.6
20260503223205 69 202 3.0 5.0 0.00 0.00 0.00 47 1011.6
20260503223025 69 248 2.0 5.0 0.00 0.00 0.00 46 1011.5
20260503222838 69 270 2.0 4.0 0.00 0.00 0.00 47 1011.5
20260503222649 68 270 3.0 4.0 0.00 0.00 0.00 47 1011.5
20260503222453 68 202 3.0 5.0 0.00 0.00 0.00 49 1011.6
20260503222315 68 270 2.0 5.0 0.00 0.00 0.00 49 1011.5
20260503222135 68 248 2.0 5.0 0.00 0.00 0.00 50 1011.5
20260503222026 68 202 2.0 5.0 0.00 0.00 0.00 50 1011.5
20260503221940 68 225 2.0 5.0 0.00 0.00 0.00 50 1011.5
20260503221745 68 202 2.0 5.0 0.00 0.00 0.00 50 1011.5
20260503221545 68 202 1.0 3.0 0.00 0.00 0.00 52 1011.5
20260503221348 68 248 1.0 3.0 0.00 0.00 0.00 53 1011.5
20260503221148 68 248 1.0 3.0 0.00 0.00 0.00 51 1011.5
20260503220959 68 158 2.0 3.0 0.00 0.00 0.00 52 1011.4
20260503220805 68 158 2.0 3.0 0.00 0.00 0.00 52 1011.4
20260503220608 68 202 2.0 3.0 0.00 0.00 0.00 51 1011.4
20260503220428 68 225 2.0 3.0 0.00 0.00 0.00 49 1011.4
20260503220242 68 248 2.0 3.0 0.00 0.00 0.00 48 1011.3
20260503220240 68 248 2.0 3.0 0.00 0.00 0.00 48 1011.4
20260503220049 68 248 2.0 3.0 0.00 0.00 0.00 48 1011.3
20260503215854 68 248 2.0 3.0 0.00 0.00 0.00 50 1011.2
20260503215715 68 248 2.0 2.0 0.00 0.00 0.00 50 1011.1
20260503215520 69 248 2.0 3.0 0.00 0.00 0.00 49 1011.2
20260503215343 69 292 2.0 5.0 0.00 0.00 0.00 50 1011.1
20260503215200 69 292 2.0 5.0 0.00 0.00 0.00 49 1011.1
20260503215020 69 292 2.0 5.0 0.00 0.00 0.00 50 1011.1
20260503214842 69 292 3.0 5.0 0.00 0.00 0.00 49 1011.1
20260503214650 69 270 3.0 5.0 0.00 0.00 0.00 51 1011.0
20260503214515 69 270 3.0 5.0 0.00 0.00 0.00 50 1011.0
20260503214457 69 270 3.0 5.0 0.00 0.00 0.00 51 1011.0
20260503214305 69 292 3.0 5.0 0.00 0.00 0.00 48 1011.1
20260503214114 69 225 3.0 5.0 0.00 0.00 0.00 47 1011.3
20260503213920 69 248 2.0 5.0 0.00 0.00 0.00 46 1011.2
20260503213740 69 248 2.0 4.0 0.00 0.00 0.00 46 1011.1
20260503213540 69 248 2.0 5.0 0.00 0.00 0.00 47 1011.0
20260503213400 69 292 1.0 5.0 0.00 0.00 0.00 47 1010.9
20260503213218 69 270 1.0 5.0 0.00 0.00 0.00 47 1010.9
20260503213031 69 292 1.0 3.0 0.00 0.00 0.00 47 1010.9
20260503213005 69 292 1.0 3.0 0.00 0.00 0.00 48 1010.9
20260503212849 69 248 1.0 2.0 0.00 0.00 0.00 48 1011.0
20260503212648 69 248 0.0 1.0 0.00 0.00 0.00 49 1011.0
20260503212508 69 248 0.0 1.0 0.00 0.00 0.00 47 1011.0
20260503212308 69 248 0.0 1.0 0.00 0.00 0.00 47 1011.0
20260503212121 69 248 0.0 1.0 0.00 0.00 0.00 50 1010.9
20260503211925 69 248 0.0 2.0 0.00 0.00 0.00 49 1011.0
20260503211740 69 0 0.0 0.0 0.00 0.00 0.00 49 1011.0
20260503211538 69 248 0.0 0.0 0.00 0.00 0.00 47 1010.8
20260503211349 69 248 0.0 0.0 0.00 0.00 0.00 48 1010.7
20260503211205 69 248 0.0 0.0 0.00 0.00 0.00 47 1010.8
20260503211122 69 248 0.0 0.0 0.00 0.00 0.00 47 1010.7
20260503211027 69 248 0.0 2.0 0.00 0.00 0.00 47 1010.7
20260503210848 69 248 0.0 2.0 0.00 0.00 0.00 46 1010.7
20260503210655 69 248 0.0 2.0 0.00 0.00 0.00 45 1010.8
20260503210508 69 225 0.0 2.0 0.00 0.00 0.00 45 1010.9
20260503210314 69 225 0.0 3.0 0.00 0.00 0.00 46 1010.8
20260503210138 69 225 0.0 2.0 0.00 0.00 0.00 46 1010.8
20260503205940 69 225 0.0 0.0 0.00 0.00 0.00 45 1010.7
20260503205740 69 225 0.0 2.0 0.00 0.00 0.00 45 1010.6
20260503205548 69 225 0.0 5.0 0.00 0.00 0.00 45 1010.6
20260503205405 69 202 1.0 5.0 0.00 0.00 0.00 44 1010.6
20260503205225 69 202 1.0 5.0 0.00 0.00 0.00 46 1010.7
20260503205205 69 202 1.0 5.0 0.00 0.00 0.00 45 1010.7
20260503205015 69 270 0.0 2.0 0.00 0.00 0.00 51 1010.6
20260503204815 69 270 0.0 2.0 0.00 0.00 0.00 52 1010.6
20260503204638 69 0 0.0 0.0 0.00 0.00 0.00 51 1010.6
20260503204458 69 0 0.0 0.0 0.00 0.00 0.00 51 1010.7
20260503204309 69 0 0.0 0.0 0.00 0.00 0.00 51 1010.7
20260503204115 69 0 0.0 0.0 0.00 0.00 0.00 49 1010.7
20260503203934 69 0 0.0 0.0 0.00 0.00 0.00 49 1010.8
20260503203732 69 0 0.0 0.0 0.00 0.00 0.00 48 1010.8
20260503203535 70 0 0.0 2.0 0.00 0.00 0.00 48 1010.7
20260503203508 70 0 0.0 2.0 0.00 0.00 0.00 48 1010.7
20260503203343 70 270 0.0 2.0 0.00 0.00 0.00 47 1010.7
20260503203145 70 270 0.0 1.0 0.00 0.00 0.00 47 1010.7
20260503202958 70 270 0.0 1.0 0.00 0.00 0.00 47 1010.6
20260503202803 70 270 0.0 2.0 0.00 0.00 0.00 47 1010.8
20260503202615 70 270 0.0 2.0 0.00 0.00 0.00 48 1010.7
20260503202414 70 270 0.0 2.0 0.00 0.00 0.00 48 1010.7
20260503202225 70 270 0.0 2.0 0.00 0.00 0.00 48 1010.7
20260503202025 70 270 0.0 2.0 0.00 0.00 0.00 47 1010.7
20260503201832 70 270 0.0 2.0 0.00 0.00 0.00 47 1010.7
20260503201652 70 270 0.0 2.0 0.00 0.00 0.00 48 1010.7
20260503201504 70 270 0.0 2.0 0.00 0.00 0.00 48 1010.7
20260503201319 70 270 0.0 2.0 0.00 0.00 0.00 48 1010.6
20260503201130 70 270 0.0 2.0 0.00 0.00 0.00 48 1010.7
20260503200948 70 270 0.0 2.0 0.00 0.00 0.00 48 1010.8
20260503200805 70 270 1.0 0.0 0.00 0.00 0.00 49 1010.7
20260503200620 70 270 1.0 2.0 0.00 0.00 0.00 48 1010.7
20260503200440 70 270 1.0 2.0 0.00 0.00 0.00 48 1010.8
20260503200300 71 270 1.0 3.0 0.00 0.00 0.00 48 1010.8
20260503200113 71 270 1.0 3.0 0.00 0.00 0.00 48 1010.8
20260503195927 71 292 1.0 3.0 0.00 0.00 0.00 48 1010.8
20260503195740 71 270 1.0 3.0 0.00 0.00 0.00 48 1010.9
20260503195555 71 270 1.0 3.0 0.00 0.00 0.00 48 1010.8
20260503195400 71 270 1.0 3.0 0.00 0.00 0.00 48 1010.8
20260503195215 71 248 1.0 2.0 0.00 0.00 0.00 48 1010.9
20260503195015 71 248 1.0 2.0 0.00 0.00 0.00 47 1010.8
20260503194829 71 248 2.0 2.0 0.00 0.00 0.00 47 1010.8
20260503194650 71 248 2.0 3.0 0.00 0.00 0.00 46 1010.8
20260503194509 71 248 2.0 3.0 0.00 0.00 0.00 46 1010.8
20260503194318 71 270 2.0 3.0 0.00 0.00 0.00 46 1010.8
20260503194135 71 270 2.0 3.0 0.00 0.00 0.00 46 1010.8
20260503193940 71 270 1.0 2.0 0.00 0.00 0.00 46 1010.8
20260503193800 71 270 1.0 2.0 0.00 0.00 0.00 45 1010.8
20260503193605 71 292 1.0 2.0 0.00 0.00 0.00 45 1010.8
20260503193415 72 270 2.0 2.0 0.00 0.00 0.00 45 1010.8
20260503193228 72 270 2.0 2.0 0.00 0.00 0.00 45 1010.8
20260503193045 72 270 2.0 2.0 0.00 0.00 0.00 45 1010.8
20260503192905 72 270 2.0 3.0 0.00 0.00 0.00 45 1010.7
20260503192812 72 270 2.0 3.0 0.00 0.00 0.00 45 1010.8
20260503192705 72 292 2.0 3.0 0.00 0.00 0.00 44 1010.8
20260503192517 72 292 1.0 3.0 0.00 0.00 0.00 44 1010.8
20260503192320 72 292 1.0 2.0 0.00 0.00 0.00 44 1010.7
20260503192125 72 292 1.0 3.0 0.00 0.00 0.00 44 1010.6
20260503191928 72 292 0.0 3.0 0.00 0.00 0.00 43 1010.6
20260503191748 72 292 0.0 3.0 0.00 0.00 0.00 44 1010.6
20260503191605 72 292 0.0 2.0 0.00 0.00 0.00 46 1010.6
20260503191425 72 292 0.0 2.0 0.00 0.00 0.00 46 1010.7
20260503191225 72 292 1.0 0.0 0.00 0.00 0.00 46 1010.6
20260503191025 72 292 1.0 2.0 0.00 0.00 0.00 45 1010.5
20260503191011 72 292 1.0 2.0 0.00 0.00 0.00 45 1010.5
20260503190835 72 292 1.0 2.0 0.00 0.00 0.00 45 1010.5
20260503190638 72 292 2.0 3.0 0.00 0.00 0.00 45 1010.6
20260503190445 72 292 2.0 3.0 0.00 0.00 0.00 42 1010.6
20260503190256 72 292 2.0 3.0 0.00 0.00 0.00 43 1010.5
20260503190115 72 270 1.0 2.0 0.00 0.00 0.00 44 1010.5
20260503185917 72 270 1.0 4.0 0.00 0.00 0.00 45 1010.5
20260503185720 72 225 1.0 4.0 0.00 0.00 0.00 48 1010.5
20260503185525 72 225 1.0 3.0 0.00 0.00 0.00 48 1010.4
20260503185446 72 270 1.0 3.0 0.00 0.00 0.00 47 1010.4
20260503185340 72 270 0.0 3.0 0.00 0.00 0.00 48 1010.4
20260503185156 72 270 0.0 2.0 0.00 0.00 0.00 48 1010.3
20260503185020 72 0 0.0 0.0 0.00 0.00 0.00 49 1010.3
20260503184845 73 0 0.0 0.0 0.00 0.00 0.00 48 1010.4
20260503184655 73 0 0.0 0.0 0.00 0.00 0.00 48 1010.3
20260503184500 73 0 0.0 0.0 0.00 0.00 0.00 47 1010.2
20260503184303 74 0 0.0 0.0 0.00 0.00 0.00 46 1010.2
20260503184109 74 0 0.0 0.0 0.00 0.00 0.00 45 1010.2
20260503183932 74 0 0.0 0.0 0.00 0.00 0.00 43 1010.2
20260503183901 74 0 0.0 0.0 0.00 0.00 0.00 43 1010.2
20260503183735 74 0 0.0 0.0 0.00 0.00 0.00 43 1010.2
20260503183537 75 0 0.0 0.0 0.00 0.00 0.00 43 1010.1
20260503183340 75 0 0.0 0.0 0.00 0.00 0.00 42 1010.1
20260503183157 75 0 0.0 0.0 0.00 0.00 0.00 41 1010.1
20260503183009 75 0 0.0 0.0 0.00 0.00 0.00 40 1010.1
20260503182825 75 0 0.0 0.0 0.00 0.00 0.00 40 1010.1
20260503182638 76 0 0.0 0.0 0.00 0.00 0.00 39 1010.1
20260503182450 76 0 0.0 0.0 0.00 0.00 0.00 40 1010.1
20260503182309 76 0 0.0 0.0 0.00 0.00 0.00 39 1010.1
20260503182202 76 0 0.0 0.0 0.00 0.00 0.00 40 1010.1
20260503182118 76 0 0.0 0.0 0.00 0.00 0.00 40 1010.1
20260503181940 76 0 0.0 0.0 0.00 0.00 0.00 40 1010.2
20260503181755 76 0 0.0 0.0 0.00 0.00 0.00 40 1010.1
20260503181608 77 0 0.0 0.0 0.00 0.00 0.00 40 1010.1
20260503181429 77 0 0.0 0.0 0.00 0.00 0.00 39 1010.1
20260503181245 77 0 0.0 0.0 0.00 0.00 0.00 38 1010.1
20260503181107 77 0 0.0 0.0 0.00 0.00 0.00 38 1010.1
20260503180918 77 0 0.0 0.0 0.00 0.00 0.00 38 1010.1
20260503180735 78 0 0.0 0.0 0.00 0.00 0.00 37 1010.1
20260503180548 78 0 0.0 0.0 0.00 0.00 0.00 37 1010.1
20260503180408 78 0 0.0 0.0 0.00 0.00 0.00 37 1010.1
20260503180228 78 0 0.0 0.0 0.00 0.00 0.00 37 1010.1
20260503180028 78 0 0.0 0.0 0.00 0.00 0.00 37 1010.0
20260503175841 79 0 0.0 0.0 0.00 0.00 0.00 36 1010.1
20260503175658 79 0 0.0 0.0 0.00 0.00 0.00 36 1010.1
20260503175505 79 0 0.0 0.0 0.00 0.00 0.00 36 1010.1
20260503175325 79 0 0.0 0.0 0.00 0.00 0.00 35 1010.0
20260503175138 79 0 0.0 0.0 0.00 0.00 0.00 35 1010.1
20260503174956 79 0 0.0 0.0 0.00 0.00 0.00 35 1010.1
20260503174826 80 0 0.0 0.0 0.00 0.00 0.00 35 1010.1
20260503174800 80 0 0.0 0.0 0.00 0.00 0.00 34 1010.0
20260503174618 80 0 0.0 0.0 0.00 0.00 0.00 35 1010.0
20260503174438 80 0 0.0 0.0 0.00 0.00 0.00 34 1010.0
20260503174240 80 0 0.0 0.0 0.00 0.00 0.00 34 1009.9
20260503174101 80 0 0.0 0.0 0.00 0.00 0.00 31 1010.0
20260503173918 80 0 0.0 0.0 0.00 0.00 0.00 31 1010.0
20260503173722 80 0 0.0 0.0 0.00 0.00 0.00 29 1010.1
20260503173540 80 0 0.0 0.0 0.00 0.00 0.00 29 1010.1
20260503173341 81 270 0.0 0.0 0.00 0.00 0.00 29 1010.0
20260503173221 81 270 0.0 0.0 0.00 0.00 0.00 29 1010.1
20260503173154 81 270 0.0 0.0 0.00 0.00 0.00 29 1010.1
20260503173003 81 270 0.0 0.0 0.00 0.00 0.00 29 1010.1
20260503172806 81 270 0.0 1.0 0.00 0.00 0.00 29 1010.0
20260503172625 82 270 0.0 1.0 0.00 0.00 0.00 28 1010.1
20260503172428 82 270 0.0 1.0 0.00 0.00 0.00 29 1010.1
20260503172235 82 270 0.0 2.0 0.00 0.00 0.00 29 1010.1
20260503172048 82 270 0.0 2.0 0.00 0.00 0.00 28 1010.0
20260503171909 82 270 1.0 2.0 0.00 0.00 0.00 27 1010.1
20260503171729 83 270 1.0 2.0 0.00 0.00 0.00 27 1010.1
20260503171706 83 270 1.0 2.0 0.00 0.00 0.00 27 1010.1
20260503171545 83 270 1.0 2.0 0.00 0.00 0.00 27 1010.0
20260503171350 84 270 1.0 2.0 0.00 0.00 0.00 27 1010.1
20260503171212 84 270 1.0 2.0 0.00 0.00 0.00 27 1010.1
20260503171020 85 270 2.0 3.0 0.00 0.00 0.00 26 1010.0
20260503170840 85 270 2.0 3.0 0.00 0.00 0.00 26 1010.1
20260503170651 86 270 1.0 3.0 0.00 0.00 0.00 26 1010.1
20260503170500 87 270 1.0 3.0 0.00 0.00 0.00 25 1010.1
20260503170320 87 270 2.0 3.0 0.00 0.00 0.00 24 1010.1
20260503170135 87 270 1.0 3.0 0.00 0.00 0.00 25 1010.1
20260503150945 85 248 5.0 10.0 0.00 0.00 0.00 26 1010.7
20260503150800 85 202 5.0 10.0 0.00 0.00 0.00 26 1010.7
20260503150605 85 292 5.0 10.0 0.00 0.00 0.00 26 1010.6
20260503150408 86 225 5.0 10.0 0.00 0.00 0.00 26 1010.6
20260503150227 86 248 5.0 10.0 0.00 0.00 0.00 24 1010.7
20260503140149 85 248 5.0 7.0 0.00 0.00 0.00 24 1011.2
20260503131349 84 292 6.0 10.0 0.00 0.00 0.00 23 1011.6
20260503131205 84 292 6.0 10.0 0.00 0.00 0.00 22 1011.6
20260503131020 84 270 6.0 11.0 0.00 0.00 0.00 23 1011.6
20260503130818 84 225 6.0 11.0 0.00 0.00 0.00 23 1011.7
20260503130620 84 248 6.0 11.0 0.00 0.00 0.00 22 1011.7
20260503130440 84 248 6.0 9.0 0.00 0.00 0.00 25 1011.8
20260503130248 84 248 6.0 8.0 0.00 0.00 0.00 25 1011.8
20260503130108 84 270 6.0 8.0 0.00 0.00 0.00 25 1011.9
20260503120155 82 202 7.0 10.0 0.00 0.00 0.00 28 1012.2
20260503110723 82 158 6.0 15.0 0.00 0.00 0.00 28 1012.6
20260503110545 82 202 7.0 15.0 0.00 0.00 0.00 28 1012.7
20260503110348 82 180 7.0 15.0 0.00 0.00 0.00 28 1012.7
20260503110203 82 270 6.0 10.0 0.00 0.00 0.00 28 1012.7
20260503100215 80 180 5.0 8.0 0.00 0.00 0.00 32 1013.3
20260503090447 77 248 4.0 5.0 0.00 0.00 0.00 36 1013.6
20260503090255 77 248 4.0 6.0 0.00 0.00 0.00 36 1013.7
20260503090108 77 270 4.0 8.0 0.00 0.00 0.00 36 1013.6
20260503081451 78 202 1.0 5.0 0.00 0.00 0.00 38 1013.8
20260503081305 78 202 1.0 5.0 0.00 0.00 0.00 36 1013.8
20260503081107 78 158 0.0 3.0 0.00 0.00 0.00 35 1013.8
20260503080921 77 158 0.0 3.0 0.00 0.00 0.00 36 1013.8
20260503080721 77 202 1.0 3.0 0.00 0.00 0.00 36 1013.9
20260503080535 76 158 0.0 2.0 0.00 0.00 0.00 36 1013.9
20260503080345 76 202 0.0 2.0 0.00 0.00 0.00 37 1013.9
20260503080200 75 202 0.0 2.0 0.00 0.00 0.00 38 1013.9
20260503072938 69 270 2.0 4.0 0.00 0.00 0.00 44 1013.9
20260503072740 69 202 2.0 4.0 0.00 0.00 0.00 44 1014.0
20260503072554 69 158 2.0 5.0 0.00 0.00 0.00 44 1014.0
20260503072414 69 202 2.0 5.0 0.00 0.00 0.00 45 1013.9
20260503072220 69 225 2.0 5.0 0.00 0.00 0.00 45 1014.0
20260503072025 68 202 2.0 5.0 0.00 0.00 0.00 45 1013.9
20260503071835 68 225 2.0 5.0 0.00 0.00 0.00 45 1014.0
20260503071652 68 248 2.0 4.0 0.00 0.00 0.00 46 1013.9
20260503071515 68 225 3.0 5.0 0.00 0.00 0.00 46 1013.9
20260503071357 68 202 3.0 5.0 0.00 0.00 0.00 45 1013.9
20260503071319 67 202 3.0 5.0 0.00 0.00 0.00 45 1013.9
20260503071139 67 225 3.0 5.0 0.00 0.00 0.00 46 1013.9
20260503070945 67 225 3.0 5.0 0.00 0.00 0.00 46 1013.9
20260503070806 67 202 3.0 5.0 0.00 0.00 0.00 47 1014.0
20260503070608 67 270 4.0 5.0 0.00 0.00 0.00 47 1013.9
20260503070409 67 248 3.0 5.0 0.00 0.00 0.00 47 1013.9
20260503070215 67 225 3.0 5.0 0.00 0.00 0.00 47 1013.9
20260503060248 73 90 0.0 1.0 0.00 0.00 0.00 41 1014.0
20260503060108 73 90 0.0 1.0 0.00 0.00 0.00 41 1014.0
20260503055005 71 90 0.0 2.0 0.00 0.00 0.00 42 1013.9
20260503054846 71 90 0.0 2.0 0.00 0.00 0.00 43 1013.9
20260503054829 70 90 0.0 2.0 0.00 0.00 0.00 43 1013.9
20260503054635 70 90 1.0 1.0 0.00 0.00 0.00 45 1014.0
20260503054440 69 90 1.0 2.0 0.00 0.00 0.00 43 1014.0
20260503054300 69 90 1.0 2.0 0.00 0.00 0.00 44 1014.0
20260503054104 68 90 1.0 2.0 0.00 0.00 0.00 47 1014.0
20260503053920 68 90 1.0 2.0 0.00 0.00 0.00 48 1014.0
20260503053725 68 90 1.0 2.0 0.00 0.00 0.00 48 1014.1
20260503053541 68 90 1.0 2.0 0.00 0.00 0.00 46 1014.1
20260503053358 68 90 0.0 2.0 0.00 0.00 0.00 45 1014.1
20260503053200 67 90 0.0 2.0 0.00 0.00 0.00 48 1014.1
20260503053150 67 90 0.0 1.0 0.00 0.00 0.00 48 1014.1
20260503053020 67 90 0.0 2.0 0.00 0.00 0.00 48 1014.0
20260503052828 67 90 0.0 2.0 0.00 0.00 0.00 50 1014.1
20260503052649 67 90 0.0 2.0 0.00 0.00 0.00 48 1014.1
20260503052505 67 90 0.0 2.0 0.00 0.00 0.00 48 1014.1
20260503052305 67 0 0.0 0.0 0.00 0.00 0.00 50 1014.2
20260503052108 66 0 0.0 0.0 0.00 0.00 0.00 47 1014.2
20260503051910 66 0 0.0 1.0 0.00 0.00 0.00 49 1014.2
20260503051735 65 0 0.0 1.0 0.00 0.00 0.00 52 1014.2
20260503051636 65 0 0.0 1.0 0.00 0.00 0.00 51 1014.2
20260503051540 64 0 0.0 0.0 0.00 0.00 0.00 52 1014.2
20260503051352 64 0 0.0 1.0 0.00 0.00 0.00 53 1014.1
20260503051200 63 0 0.0 1.0 0.00 0.00 0.00 55 1014.2
20260503051012 63 90 0.0 0.0 0.00 0.00 0.00 54 1014.2
20260503050815 62 90 0.0 0.0 0.00 0.00 0.00 58 1014.2
20260503050615 62 90 0.0 0.0 0.00 0.00 0.00 59 1014.2
20260503050415 62 90 0.0 1.0 0.00 0.00 0.00 60 1014.2
20260503050235 62 90 0.0 1.0 0.00 0.00 0.00 57 1014.2
20260503050035 61 90 0.0 1.0 0.00 0.00 0.00 57 1014.2
20260503045837 60 0 0.0 0.0 0.00 0.00 0.00 60 1014.3
20260503045810 60 0 0.0 1.0 0.00 0.00 0.00 59 1014.3
20260503045655 60 0 0.0 1.0 0.00 0.00 0.00 58 1014.2
20260503045505 59 0 0.0 1.0 0.00 0.00 0.00 61 1014.2
20260503045319 59 0 0.0 0.0 0.00 0.00 0.00 64 1014.2
20260503045120 59 90 0.0 1.0 0.00 0.00 0.00 65 1014.2
20260503044919 60 90 0.0 1.0 0.00 0.00 0.00 64 1014.3
20260503044725 60 90 0.0 2.0 0.00 0.00 0.00 64 1014.2
20260503044527 60 90 0.0 2.0 0.00 0.00 0.00 61 1014.3
20260503044350 60 90 0.0 2.0 0.00 0.00 0.00 62 1014.1
20260503044149 59 90 0.0 2.0 0.00 0.00 0.00 62 1014.1
20260503044010 59 90 0.0 2.0 0.00 0.00 0.00 62 1014.1
20260503043828 58 90 0.0 2.0 0.00 0.00 0.00 63 1014.0
20260503043648 58 90 0.0 2.0 0.00 0.00 0.00 64 1014.0
20260503043502 58 90 1.0 0.0 0.00 0.00 0.00 64 1014.0
20260503043318 57 90 1.0 0.0 0.00 0.00 0.00 64 1013.9
20260503043135 56 90 1.0 2.0 0.00 0.00 0.00 64 1013.9
20260503042948 56 90 1.0 5.0 0.00 0.00 0.00 66 1014.0
20260503042807 55 90 2.0 5.0 0.00 0.00 0.00 68 1013.9
20260503042609 55 90 2.0 5.0 0.00 0.00 0.00 68 1013.9
20260503042534 54 90 2.0 5.0 0.00 0.00 0.00 69 1013.9
20260503042433 54 90 2.0 2.0 0.00 0.00 0.00 69 1014.0
20260503042245 54 90 1.0 2.0 0.00 0.00 0.00 70 1014.0
20260503042052 53 90 2.0 3.0 0.00 0.00 0.00 70 1013.9
20260503041900 53 90 2.0 3.0 0.00 0.00 0.00 72 1013.9
20260503041702 53 90 2.0 3.0 0.00 0.00 0.00 73 1014.0
20260503041505 53 90 2.0 3.0 0.00 0.00 0.00 74 1014.0
20260503041308 53 90 2.0 3.0 0.00 0.00 0.00 75 1014.0
20260503041120 53 90 2.0 3.0 0.00 0.00 0.00 75 1014.1
20260503041017 53 90 2.0 3.0 0.00 0.00 0.00 75 1014.0
20260503040928 53 90 2.0 3.0 0.00 0.00 0.00 75 1014.1
20260503040748 53 90 2.0 3.0 0.00 0.00 0.00 74 1014.0
20260503040610 53 90 2.0 3.0 0.00 0.00 0.00 75 1014.0
20260503040415 53 90 2.0 3.0 0.00 0.00 0.00 76 1014.1
20260503040220 53 90 2.0 3.0 0.00 0.00 0.00 75 1014.2
20260503040037 53 90 2.0 3.0 0.00 0.00 0.00 75 1014.1
20260503035856 53 90 2.0 3.0 0.00 0.00 0.00 75 1014.1
20260503035659 53 90 2.0 3.0 0.00 0.00 0.00 74 1014.1
20260503035515 53 90 2.0 3.0 0.00 0.00 0.00 74 1014.1
20260503035340 53 90 2.0 3.0 0.00 0.00 0.00 75 1014.0
20260503035145 53 90 2.0 3.0 0.00 0.00 0.00 75 1014.1
20260503035125 53 90 2.0 3.0 0.00 0.00 0.00 75 1014.0
20260503035005 53 90 2.0 3.0 0.00 0.00 0.00 75 1014.0
20260503034828 53 90 2.0 3.0 0.00 0.00 0.00 75 1014.0
20260503034647 53 90 2.0 3.0 0.00 0.00 0.00 75 1014.0
20260503034448 53 90 2.0 3.0 0.00 0.00 0.00 75 1014.1
20260503034305 53 90 2.0 3.0 0.00 0.00 0.00 75 1014.1
20260503034120 53 90 2.0 3.0 0.00 0.00 0.00 74 1014.1
20260503033925 53 90 2.0 3.0 0.00 0.00 0.00 74 1014.1
20260503033739 53 90 2.0 3.0 0.00 0.00 0.00 75 1014.2
20260503033539 53 90 1.0 3.0 0.00 0.00 0.00 76 1014.2
20260503033400 53 90 1.0 3.0 0.00 0.00 0.00 76 1014.1
20260503033311 53 90 0.0 3.0 0.00 0.00 0.00 76 1014.2
20260503033205 53 90 0.0 2.0 0.00 0.00 0.00 76 1014.1
20260503033019 53 90 0.0 2.0 0.00 0.00 0.00 76 1014.2
20260503032829 53 0 0.0 2.0 0.00 0.00 0.00 75 1014.2
20260503032650 53 0 0.0 0.0 0.00 0.00 0.00 75 1014.2
20260503032455 54 0 0.0 0.0 0.00 0.00 0.00 73 1014.2
20260503032300 54 90 0.0 0.0 0.00 0.00 0.00 74 1014.2
20260503032105 54 90 1.0 0.0 0.00 0.00 0.00 73 1014.1
20260503031907 54 90 1.0 2.0 0.00 0.00 0.00 73 1014.1
20260503031728 54 90 2.0 3.0 0.00 0.00 0.00 71 1014.1
20260503031650 54 90 2.0 3.0 0.00 0.00 0.00 71 1014.1
20260503031534 54 90 2.0 3.0 0.00 0.00 0.00 71 1014.1
20260503031338 54 90 2.0 3.0 0.00 0.00 0.00 71 1014.1
20260503031155 55 90 2.0 3.0 0.00 0.00 0.00 71 1014.0
20260503031005 55 90 2.0 3.0 0.00 0.00 0.00 69 1014.1
20260503030805 55 90 2.0 3.0 0.00 0.00 0.00 69 1014.0
20260503030623 55 90 2.0 3.0 0.00 0.00 0.00 71 1014.1
20260503030441 55 90 2.0 3.0 0.00 0.00 0.00 70 1014.1
20260503030300 55 90 2.0 3.0 0.00 0.00 0.00 72 1014.1
20260503030120 55 90 2.0 3.0 0.00 0.00 0.00 71 1014.1
20260503025920 55 90 2.0 3.0 0.00 0.00 0.00 68 1014.1
20260503025745 55 90 2.0 3.0 0.00 0.00 0.00 71 1014.2
20260503025545 55 90 2.0 3.0 0.00 0.00 0.00 71 1014.1
20260503025400 56 90 2.0 3.0 0.00 0.00 0.00 72 1014.1
20260503025220 56 90 2.0 3.0 0.00 0.00 0.00 72 1014.1
20260503025040 56 90 2.0 3.0 0.00 0.00 0.00 69 1014.1
20260503024905 56 90 2.0 3.0 0.00 0.00 0.00 67 1014.1
20260503024708 56 90 2.0 3.0 0.00 0.00 0.00 69 1014.2
20260503024523 56 90 2.0 3.0 0.00 0.00 0.00 68 1014.1
20260503024411 56 90 2.0 3.0 0.00 0.00 0.00 68 1014.3
20260503024325 56 90 2.0 3.0 0.00 0.00 0.00 68 1014.1
20260503024148 56 90 2.0 3.0 0.00 0.00 0.00 68 1014.2
20260503023948 56 90 2.0 3.0 0.00 0.00 0.00 68 1014.2
20260503023755 56 90 2.0 3.0 0.00 0.00 0.00 67 1014.2
20260503023615 56 90 2.0 3.0 0.00 0.00 0.00 67 1014.2
20260503023429 56 90 2.0 3.0 0.00 0.00 0.00 66 1014.3
20260503023242 56 90 2.0 3.0 0.00 0.00 0.00 66 1014.3
20260503023100 56 90 2.0 3.0 0.00 0.00 0.00 65 1014.2
20260503022920 56 90 2.0 3.0 0.00 0.00 0.00 63 1014.3
20260503022735 56 90 2.0 2.0 0.00 0.00 0.00 67 1014.2
20260503022627 56 90 2.0 2.0 0.00 0.00 0.00 68 1014.2
20260503022534 56 90 2.0 5.0 0.00 0.00 0.00 67 1014.2
20260503022335 55 90 3.0 5.0 0.00 0.00 0.00 65 1014.2
20260503022145 55 90 2.0 4.0 0.00 0.00 0.00 65 1014.3
20260503021945 55 90 2.0 4.0 0.00 0.00 0.00 65 1014.2
20260503021744 55 90 2.0 3.0 0.00 0.00 0.00 68 1014.3
20260503021600 55 112 2.0 3.0 0.00 0.00 0.00 69 1014.2
20260503021405 55 112 2.0 3.0 0.00 0.00 0.00 68 1014.3
20260503021205 55 112 2.0 3.0 0.00 0.00 0.00 68 1014.4
20260503021113 55 112 2.0 3.0 0.00 0.00 0.00 69 1014.4
20260503021025 55 112 2.0 3.0 0.00 0.00 0.00 69 1014.3
20260503020828 55 112 2.0 3.0 0.00 0.00 0.00 69 1014.3
20260503020635 55 112 2.0 3.0 0.00 0.00 0.00 69 1014.3
20260503020434 55 112 1.0 3.0 0.00 0.00 0.00 68 1014.3
20260503020240 55 112 1.0 3.0 0.00 0.00 0.00 68 1014.3
20260503020048 55 112 1.0 2.0 0.00 0.00 0.00 67 1014.3
20260503015908 55 112 1.0 2.0 0.00 0.00 0.00 69 1014.3
20260503015720 55 112 1.0 2.0 0.00 0.00 0.00 69 1014.4
20260503015526 55 112 1.0 3.0 0.00 0.00 0.00 68 1014.4
20260503015451 55 112 1.0 3.0 0.00 0.00 0.00 69 1014.4
20260503015346 55 112 1.0 3.0 0.00 0.00 0.00 69 1014.4
20260503015205 55 112 1.0 3.0 0.00 0.00 0.00 69 1014.4
20260503015025 55 112 1.0 3.0 0.00 0.00 0.00 69 1014.4
20260503014825 55 112 1.0 2.0 0.00 0.00 0.00 69 1014.4
20260503014645 55 112 1.0 2.0 0.00 0.00 0.00 68 1014.5
20260503014500 55 112 1.0 2.0 0.00 0.00 0.00 68 1014.5
20260503014312 55 112 1.0 2.0 0.00 0.00 0.00 68 1014.4
20260503014135 55 112 1.0 2.0 0.00 0.00 0.00 68 1014.4
20260503013945 55 112 1.0 2.0 0.00 0.00 0.00 69 1014.5
20260503013825 55 112 1.0 2.0 0.00 0.00 0.00 68 1014.4
20260503013748 56 112 1.0 3.0 0.00 0.00 0.00 68 1014.5
20260503013600 56 112 1.0 3.0 0.00 0.00 0.00 67 1014.5
20260503013408 56 112 1.0 3.0 0.00 0.00 0.00 67 1014.5
20260503013232 56 112 1.0 2.0 0.00 0.00 0.00 67 1014.4
20260503013055 56 112 1.0 2.0 0.00 0.00 0.00 67 1014.5
20260503012900 56 112 1.0 2.0 0.00 0.00 0.00 67 1014.5
20260503012709 56 112 1.0 2.0 0.00 0.00 0.00 67 1014.5
20260503012514 56 112 1.0 3.0 0.00 0.00 0.00 63 1014.5